This demonstration page uses our WeatherBlox Daily Observations layout. Learn more.

Left ArrowRight Arrow

41.55636, -103.73856

Hourly Observations for January 1, 2015

Temp ( °F °C ) Dew Point ( °F °C ) Humidity (%) Winds ( mph kmh ) Pressure ( in mb ) Visibility ( mi km ) Precip ( " mm )
12:53 am 00:53 Clear -6 -21.1 -11 -23.9 78 78 WNW 7 11 30.37 1029 10 16 0.00 0.00
1:53 am 01:53 Clear -6 -21.1 -11 -23.9 78 78 WNW 8 13 30.37 1028 10 16 0.00 0.00
2:53 am 02:53 Clear -6 -21.1 -11 -23.9 78 78 NW 9 15 30.34 1027 10 16 0.00 0.00
3:53 am 03:53 Clear -4 -20 -10 -23.3 75 75 NW 15 24 30.31 1027 10 16 0.00 0.00
4:53 am 04:53 Clear -4 -20 -11 -23.9 71 71 NW 15 24 30.31 1026 10 16 0.00 0.00
5:53 am 05:53 Clear -8 -22.2 -14 -25.6 74 74 NW 13 20 30.32 1027 10 16 0.00 0.00
6:53 am 06:53 Clear -8 -22.2 -14 -25.6 74 74 NW 15 24 30.33 1027 10 16 0.00 0.00
7:53 am 07:53 Sunny -7 -21.7 -13 -25 75 75 NW 16 26 30.33 1027 10 16 0.00 0.00
8:53 am 08:53 Sunny 1 -17.2 -8 -22.2 65 65 NW 16 26 30.32 1027 10 16 0.00 0.00
9:53 am 09:53 Sunny 3 -16.1 -6 -21.1 66 66 NW 15 24 30.33 1027 10 16 0.00 0.00
10:53 am 10:53 Sunny 9 -12.8 -3 -19.4 58 58 NW 12 19 30.30 1026 10 16 0.00 0.00
11:53 am 11:53 Sunny 14 -10 0 -17.8 53 53 NW 15 24 30.24 1024 10 16 0.00 0.00
12:53 pm 12:53 Sunny 14 -10 4 -15.6 64 64 NW 10 17 30.24 1024 10 16 0.00 0.00
1:53 pm 13:53 Sunny 16 -8.9 5 -15 62 62 W 12 19 30.24 1024 10 16 0.00 0.00
2:53 pm 14:53 Sunny 18 -7.8 8 -13.3 65 65 NNW 7 11 30.23 1024 10 16 0.00 0.00
3:53 pm 15:53 Cloudy 18 -7.8 8 -13.3 65 65 NNW 10 17 30.24 1024 10 16 0.00 0.00
4:53 pm 16:53 Clear 9 -13 -2 -19 61 61 WNW 9 15 30.53 1034 10 16 0.00 0.00
5:53 pm 17:53 Cloudy 20 -6.7 12 -11.1 71 71 W 6 9 30.27 1025 10 16 0.00 0.00
6:53 pm 18:53 Cloudy 22 -5.6 13 -10.6 68 68 NW 9 15 30.27 1025 10 16 0.00 0.00
7:53 pm 19:53 Cloudy 23 -5 15 -9.4 72 72 NW 8 13 30.27 1025 10 16 0.00 0.00
8:53 pm 20:53 Cloudy 22 -5.6 15 -9.4 75 75 NW 9 15 30.24 1024 10 16 0.00 0.00
9:53 pm 21:53 Cloudy 23 -5 16 -8.9 74 74 WNW 7 11 30.24 1024 10 16 0.00 0.00
10:53 pm 22:53 Cloudy 23 -5 17 -8.3 78 78 NW 8 13 30.24 1024 10 16 0.00 0.00
11:53 pm 23:53 Cloudy 24 -4.4 18 -7.8 77 77 W 5 7 30.22 1023 10 16 0.00 0.00

Powered by AerisWeather